カタログに戻る

SL-8 DEB

運用中LEO
NORAD 14812·DEBRIS·🇷🇺 Russia

打ち上げ Apr 12, 1983 から Plesetsk Cosmodrome

Loading…

次のパス (今後24時間)

TLE

最新Source: Space-Track

元期: Sep 14, 2026, 10:12 UTC

1 14812U 83031C   26257.42565405  .00000844  00000-0  22212-3 0  9992
2 14812  74.0517 256.2595 0015687 347.2352 164.0390 14.50543400265045

AllMySatでSL-8 DEBをリアルタイム追跡

Download on the App Store